SCP
0 0 0 0 0 0 0 0 0 0 0 0 0 0 0 0 0 0 0 0 0 0 0 0 0 0 0 0 0 0 0 0 0 0 0 0 0 0 0 0 0 0 0 0 0 0 0 0 0
0 0 0 0 0 0 0 0 0 0 0 0 0 0 0 0 0 0 0 0 0 0 0 0 0 0 0 0 0 0 0 0 0 0 0 0 0 0 0 0 0 0 0 0 0 0 0 0 0
0 0 0 0 0 0 0 0 0 0 0 0 0 0 0 0 0 0 0 0 0 0 0 0 0 0 0 0 0 0 0 0 0 0 0 0 0 0 0 0 0 0 0 0 0 0 0 0 0
0 0 0 0 0 0 0 0 0 0 0 0 0 0 0 0 0 0 0 0 0 0 0 0 0 0 0 0 0 0 0 0 0 0 0 0 0 0 0 0 0 0 0 0 0 0 0 0 0
0 0 0 0 0 0 0 0 0 0 0 0 0 0 0 0 0 0 0 0 0 0 0 0 0 0 0 0 0 0 0 0 0 0 0 0 0 0 0 0 0 0 0 0 0 0 0 0 0
0 0 0 0 0 0 0 0 0 0 0 0 0 0 0 0 0 0 0 0 0 0 0 0 0 0 0 0 0 0 0 0 0 0 0 0 0 0 0 0 0 0 0 0 0 0 0 0 0
0 0 0 0 0 0 0 0 0 0 0 0 0 0 0 0 0 0 0 0 0 0 0 0 0 0 0 0 0 0 0 0 0 0 0 0 0 0 0 0 0 0 0 0 0 0 0 0 0
0 0 0 0 0 0 0 0 0 0 0 0 0 0 0 0 0 0 0 0 0 0 0 0 0 0 0 0 0 0 0 0 0 0 0 0 0 0 0 0 0 0 0 0 0 0 0 0 0
0 0 0 0 0 0 0 0 0 0 0 0 0 0 0 0 0 0 0 0 0 0 0 0 0 0 0 0 0 0 0 0 0 0 0 0 0 0 0 0 0 0 0 0 0 0 0 0 0
0 0 0 0 0 0 0 0 0 0 0 0 0 0 0 0 0 0 0 0 0 0 0 0 0 0 0 0 0 0 0 0 0 0 0 0 0 0 0 0 0 0 0 0 0 0 0 0 0
0 0 0 0 0 0 0 0 0 0 0 0 0 0 0 0 0 0 0 0 0 0 0 0 0 0 0 0 0 0 0 0 0 0 0 0 0 0 0 0 0 0 0 0 0 0 0 0 0
0 0 0 0 0 0 0 0 0 0 0 0 0 0 0 0 0 0 0 0 0 0 0 0 0 0 0 0 0 0 0 0 0 0 0 0 0 0 0 0 0 0 0 0 0 0 0 0 0
0 0 0 0 0 0 0 0 0 0 0 0 0 0 0 0 0 0 0 0 0 0 0 0 0 0 0 0 0 0 0 0 0 0 0 0 0 0 0 0 0 0 0 0 0 0 0 0 0
0 0 0 0 0 0 0 0 0 0 0 0 0 0 0 0 0 0 0 0 0 0 0 0 0 0 0 0 0 0 0 0 0 0 0 0 0 0 0 0 0 0 0 0 0 0 0 0 0
0 0 0 0 0 0 0 0 0 0 0 0 0 0 0 0 0 0 0 0 0 0 0 0 0 0 0 0 0 0 0 0 0 0 0 0 0 0 0 0 0 0 0 0 0 0 0 0 0
0 0 0 0 0 0 0 0 0 0 0 0 0 0 0 0 0 0 0 0 0 0 0 0 0 0 0 0 0 0 0 0 0 0 0 0 0 0 0 0 0 0 0 0 0 0 0 0 0
0 0 0 0 0 0 0 0 0 0 0 0 0 0 0 0 0 0 0 0 0 0 0 0 0 0 0 0 0 0 0 0 0 0 0 0 0 0 0 0 0 0 0 0 0 0 0 0 0
0 0 0 0 0 0 0 0 0 0 0 0 0 0 0 0 0 0 0 0 0 0 0 0 0 0 0 0 0 0 0 0 0 0 0 0 0 0 0 0 0 0 0 0 0 0 0 0 0
0 0 0 0 0 0 0 0 0 0 0 0 0 0 0 0 0 0 0 0 0 0 0 0 0 0 0 0 0 0 0 0 0 0 0 0 0 0 0 0 0 0 0 0 0 0 0 0 0
0 0 0 0 0 0 0 0 0 0 0 0 0 0 0 0 0 0 0 0 0 0 0 0 0 0 0 0 0 0 0 0 0 0 0 0 0 0 0 0 0 0 0 0 0 0 0 0 0
0 0 0 0 0 0 0 0 0 0 0 0 0 0 0 0 0 0 0 0 0 0 0 0 0 0 0 0 0 0 0 0 0 0 0 0 0 0 0 0 0 0 0 0 0 0 0 0 0
0 0 0 0 0 0 0 0 0 0 0 0 0 0 0 0 0 0 0 0 0 0 0 0 0 0 0 0 0 0 0 0 0 0 0 0 0 0 0 0 0 0 0 0 0 0 0 0 0
0 0 0 0 0 0 0 0 0 0 0 0 0 0 0 0 0 0 0 0 0 0 0 0 0 0 0 0 0 0 0 0 0 0 0 0 0 0 0 0 0 0 0 0 0 0 0 0 0
0 0 0 0 0 0 0 0 0 0 0 0 0 0 0 0 0 1 0 0 1 1 1 0 0 0 0 0 0 0 0 0 0 0 0 0 0 0 0 0 0 0 0 0 0 0 0 0 0
0 0 0 0 0 0 0 0 0 0 0 0 0 0 0 0 0 1 1 1 1 1 1 1 0 0 0 0 0 0 0 0 0 0 0 0 0 0 0 0 0 0 0 0 0 0 0 0 0
0 0 0 0 0 0 0 0 0 0 0 0 0 0 0 0 0 0 0 1 1 1 1 1 0 0 0 0 0 0 0 0 0 0 0 0 0 0 0 0 0 0 0 0 0 0 0 0 0
0 0 0 0 0 0 0 0 0 0 0 0 0 0 0 0 0 0 0 1 1 1 1 1 0 0 0 0 0 0 0 0 0 0 0 0 0 0 0 0 0 0 0 0 0 0 0 0 0
0 0 0 0 0 0 0 0 0 0 0 0 0 0 0 0 0 0 0 1 1 1 1 1 1 0 0 0 0 0 0 0 0 0 0 0 0 0 0 0 0 0 0 0 0 0 0 0 0
0 0 0 0 0 0 0 0 0 0 0 0 0 0 0 0 1 1 1 1 1 1 1 1 1 0 0 0 0 0 0 0 0 0 0 0 0 0 0 0 0 0 0 0 0 0 0 0 0
0 0 0 0 0 0 0 0 0 0 0 0 0 0 0 1 1 1 1 1 1 1 1 1 0 0 0 0 0 0 0 0 0 0 0 0 0 0 0 0 0 0 0 0 0 0 0 0 0
Wind_Speed
8 6 3 1 1 3 2 2 4 5 6 7 10 9 8 6 4 4 2 6 7 5 3 5 6 6 6 7 7 8 8 8 8 7 6 7 7 7 7 7 8 8 9 9 10 10 11 11 11
6 5 1 1 3 3 2 3 6 8 9 10 10 10 9 6 5 6 4 5 7 5 3 5 7 7 7 8 8 9 8 8 8 7 7 7 8 8 7 7 7 8 9 9 9 9 10 11 12
5 3 1 1 1 1 2 3 7 9 9 8 7 6 5 4 4 4 5 7 6 4 3 4 8 7 7 8 9 9 8 8 8 8 8 8 8 7 7 7 8 8 8 8 8 9 9 10 11
2 1 1 1 1 1 4 4 7 9 8 8 8 6 4 3 3 6 9 8 7 4 3 4 7 8 8 8 8 8 8 8 8 9 8 8 7 7 7 7 8 8 8 7 8 9 9 9 10
1 1 2 1 1 2 4 6 8 8 6 8 10 6 3 3 8 10 9 8 7 4 3 4 7 7 7 8 8 8 8 9 9 9 8 7 7 6 7 7 7 7 7 6 7 8 10 10 11
1 2 2 2 3 4 5 7 10 12 11 9 9 6 2 3 8 8 8 7 6 5 3 4 6 7 7 7 7 8 8 9 9 8 7 7 6 6 7 7 8 7 6 5 7 8 10 9 10
2 1 1 1 3 4 5 6 8 9 9 6 7 6 2 2 4 7 7 6 5 5 4 3 3 4 6 7 7 8 8 8 8 8 7 6 6 7 7 8 7 7 6 6 7 8 9 10 10
3 1 1 1 3 3 4 6 7 9 7 7 6 7 4 3 5 8 7 5 4 4 3 3 2 2 2 3 7 7 8 7 7 7 7 6 7 7 8 7 6 6 6 7 7 8 9 8 8
1 2 1 1 3 3 5 8 6 6 8 5 5 7 7 7 8 9 7 5 4 4 3 3 3 2 2 3 4 5 6 6 6 5 6 5 3 4 4 6 6 5 5 7 7 8 7 7 7
3 2 3 3 2 5 6 6 5 6 8 7 8 8 9 9 9 8 7 5 4 3 3 3 4 3 3 3 3 2 2 2 2 2 3 2 2 2 4 5 6 6 7 8 8 7 5 4 3
5 5 3 1 3 5 5 3 4 8 6 8 11 10 9 9 8 7 6 5 4 4 4 3 3 3 3 2 3 2 1 2 2 3 2 2 2 2 3 2 2 3 5 4 4 3 2 2 2
2 3 2 2 3 5 5 4 5 6 7 9 11 11 9 8 7 7 6 5 4 5 4 3 3 4 3 3 2 2 2 2 2 2 3 3 2 2 2 2 2 2 2 3 2 2 3 3 3
0 0 1 2 3 5 7 6 6 7 9 11 11 10 9 8 6 6 6 6 5 5 5 4 4 4 4 4 3 3 2 2 2 2 3 3 3 2 3 2 2 2 2 3 3 3 4 3 4
2 0 2 2 3 5 9 6 6 6 9 10 10 8 8 8 8 6 6 6 5 4 4 4 5 4 5 4 3 2 2 2 3 2 3 4 3 3 3 3 3 2 2 2 3 3 3 3 3
1 2 3 1 2 3 8 6 4 6 8 9 8 8 8 8 8 8 7 7 6 5 4 4 5 5 5 4 3 3 2 3 3 2 3 3 3 3 3 3 2 2 3 3 3 3 3 3 3
4 3 2 2 1 2 7 4 4 6 9 8 7 8 8 7 7 7 8 7 6 5 5 4 5 5 5 4 3 3 3 3 3 2 2 3 3 3 3 3 2 2 3 3 3 2 3 2 2
4 2 2 4 1 1 5 4 4 6 8 7 6 7 8 7 6 6 7 7 7 6 5 4 4 4 4 4 3 3 3 3 3 3 2 2 3 4 3 2 2 2 3 2 3 2 2 2 2
4 2 2 4 3 3 3 4 5 6 7 7 6 7 7 8 7 7 7 7 7 6 5 5 4 4 4 3 3 3 3 3 2 2 3 3 3 4 4 3 3 2 2 2 2 2 2 2 1
5 3 3 5 2 3 4 4 4 5 6 7 6 7 8 8 7 6 7 7 7 6 5 4 4 3 3 3 2 2 2 2 2 2 2 3 3 3 3 3 2 2 2 1 1 2 2 1 1
3 2 3 4 1 2 3 2 3 5 7 8 8 8 8 7 6 6 6 7 6 6 5 5 4 4 3 3 2 2 2 1 1 1 2 2 3 2 3 3 2 2 2 1 1 1 1 0 1
3 4 4 3 2 4 4 2 2 3 3 5 7 8 9 11 11 9 7 7 7 6 6 6 4 4 3 4 3 3 2 2 2 2 1 2 2 2 2 2 2 1 2 1 1 2 3 1 1
4 5 4 3 3 1 2 1 5 4 3 4 5 6 8 9 10 9 8 7 7 7 6 6 5 4 3 4 4 5 3 2 1 1 1 1 2 2 2 2 2 1 1 1 1 1 1 2 0
5 4 2 2 2 1 1 2 6 2 4 5 6 7 7 9 10 11 10 8 7 6 6 5 5 4 3 4 5 4 3 2 1 1 2 1 1 1 1 2 2 1 1 1 1 1 1 1 1
2 3 4 5 5 2 3 3 6 5 7 6 7 8 8 9 9 9 8 7 6 6 5 5 5 3 3 4 4 5 4 3 2 2 1 1 1 1 2 1 1 1 1 1 0 0 1 0 0
3 6 4 5 4 3 3 2 8 6 6 7 9 8 8 9 9 9 9 8 7 7 6 6 6 4 3 4 4 4 4 4 3 3 2 1 1 1 1 1 1 0 0 0 0 1 1 1 1
3 8 7 4 3 3 2 3 6 3 2 5 7 7 8 8 8 9 9 9 8 8 6 6 5 4 4 4 3 3 3 2 2 2 2 2 1 1 0 1 1 1 1 1 1 1 0 1 1
3 3 8 7 2 0 2 3 5 2 1 3 6 7 9 9 9 9 8 8 8 8 7 6 6 4 4 3 3 3 2 2 2 2 2 1 1 1 1 1 1 0 1 1 1 1 1 1 1
6 6 5 5 3 1 2 3 5 5 6 5 6 7 8 8 9 8 8 8 7 8 7 6 5 4 3 3 3 3 2 2 2 2 2 1 1 1 2 1 1 1 1 1 1 1 1 1 1
0 2 5 4 5 6 3 6 8 11 9 8 8 8 8 9 9 8 8 7 7 6 6 6 5 4 3 4 3 3 2 2 2 2 1 1 1 2 2 1 1 2 2 1 1 1 1 1 1
4 4 6 4 4 4 5 7 4 8 7 9 9 8 7 8 9 9 8 8 7 7 6 6 5 5 4 4 4 3 3 3 2 1 1 1 1 1 1 1 1 1 1 1 1 1 1 1 0
Wind_Direction
166 163 171 191 10 30 28 50 91 80 64 65 73 78 75 68 91 131 184 139 138 147 157 145 125 112 111 116 122 127 125 123 123 117 118 127 129 130 133 140 147 150 152 154 156 158 157 157 160
162 166 183 35 46 47 13 68 76 89 117 106 81 78 73 68 87 114 125 146 139 138 148 143 127 116 114 116 119 122 123 123 121 118 113 118 120 121 124 133 142 145 146 150 156 159 158 159 163
179 189 180 51 37 133 111 99 99 98 100 93 85 64 69 95 101 126 150 147 131 132 145 144 131 126 118 114 114 118 125 124 120 118 113 112 113 119 121 128 137 140 142 146 155 156 157 161 165
168 156 20 44 61 181 137 134 107 100 79 77 90 69 55 86 115 134 142 137 129 136 146 143 132 131 126 119 117 118 121 119 114 115 113 111 110 118 123 126 131 136 139 145 154 156 155 156 157
125 69 12 13 60 76 105 115 104 95 85 87 91 92 67 63 111 130 138 135 138 145 150 144 133 133 131 125 121 121 119 119 116 112 110 105 108 114 120 120 121 128 137 147 154 153 152 150 152
59 67 39 48 67 68 83 104 99 97 103 103 98 99 76 121 121 134 134 134 139 143 146 138 138 129 128 129 126 123 121 119 116 113 111 103 104 116 123 118 119 123 125 127 141 147 146 147 146
125 89 243 112 82 75 89 98 101 113 113 113 120 99 89 120 138 130 127 128 128 130 130 127 136 133 131 130 127 124 120 117 114 112 106 99 97 115 125 123 123 124 126 126 131 147 144 139 140
164 105 321 63 103 102 96 89 101 111 109 122 116 115 146 184 121 113 111 113 113 115 124 122 110 111 117 119 123 124 122 118 116 112 108 98 96 109 117 119 125 129 133 135 131 135 137 134 136
147 66 13 173 151 141 116 102 94 87 101 95 90 117 146 138 114 106 95 89 94 94 96 110 112 119 124 115 120 118 119 119 117 111 108 96 72 85 101 113 122 125 131 137 131 128 129 128 128
143 150 212 208 160 142 118 114 119 94 90 90 95 105 121 115 111 113 114 113 107 108 108 106 113 118 122 128 110 93 95 91 86 82 80 66 64 84 98 104 111 110 114 126 126 130 129 116 111
166 178 210 199 151 133 122 111 99 115 117 138 134 134 127 115 111 113 115 118 116 119 105 102 117 116 111 105 107 91 80 76 77 82 82 76 69 70 69 75 84 86 95 102 109 107 101 101 103
158 203 180 161 121 112 128 116 101 117 144 142 135 134 128 123 122 123 122 119 105 93 90 86 96 102 103 103 105 107 95 87 84 83 88 89 81 75 76 76 73 69 77 89 80 84 85 90 96
92 191 96 149 106 118 115 107 108 106 120 129 130 130 132 133 128 121 118 112 100 90 84 88 86 92 100 97 96 99 92 94 97 90 86 97 97 89 79 75 78 78 86 101 101 93 88 84 89
264 280 86 105 96 117 111 105 99 128 130 134 137 138 139 136 132 120 115 111 108 102 94 87 83 87 94 97 98 98 98 95 92 87 83 89 94 95 92 86 85 89 99 105 108 108 103 95 92
351 19 9 94 106 125 104 80 113 145 133 134 143 144 138 136 134 134 133 129 129 124 109 101 98 83 85 88 92 87 82 91 93 89 80 84 91 98 101 90 85 92 95 92 93 90 86 89 86
11 31 359 291 145 152 106 143 179 154 139 141 149 147 139 141 141 139 136 129 128 122 115 105 100 89 87 88 87 81 76 82 86 83 78 81 87 90 94 93 86 86 87 90 97 94 89 86 94
12 7 309 294 252 147 109 158 198 168 145 153 156 151 143 139 137 139 140 137 134 130 125 111 97 99 98 95 87 80 74 72 78 79 73 76 87 92 94 94 92 87 85 87 103 92 102 109 117
257 272 267 263 259 109 119 163 177 168 153 158 159 155 152 151 158 154 146 139 132 127 121 112 101 96 97 93 80 66 59 57 63 70 73 78 82 90 93 93 86 92 89 79 88 99 90 120 148
211 223 253 269 227 115 149 165 181 174 160 165 165 166 166 164 161 151 144 138 131 125 119 115 108 103 101 98 99 93 75 58 53 60 68 73 78 86 95 100 95 90 96 107 117 112 99 103 111
205 194 255 280 222 118 129 154 187 191 183 181 178 174 167 161 154 157 151 147 145 143 139 135 132 127 122 125 129 128 124 104 98 60 58 74 84 92 103 104 109 105 98 77 79 117 116 144 139
244 199 216 230 31 67 90 5 230 226 205 186 178 172 170 168 168 168 162 158 150 152 156 150 151 141 134 127 110 96 73 54 46 42 39 38 72 83 98 110 116 117 125 136 154 152 146 170 268
253 236 202 182 112 254 129 220 265 220 215 190 182 175 176 169 166 166 163 162 162 166 161 153 151 142 139 133 125 124 121 127 160 154 84 52 53 69 91 101 109 110 106 119 141 132 144 146 204
227 231 193 161 116 65 17 127 275 222 198 205 192 180 175 170 166 167 166 169 166 161 155 148 142 137 136 133 138 132 126 138 128 93 80 54 34 48 75 103 101 98 90 107 80 82 113 137 162
200 45 28 51 68 18 255 159 262 233 203 189 181 177 175 168 161 159 157 152 150 149 144 142 135 135 138 138 137 138 140 140 124 111 99 60 19 24 34 70 82 87 94 131 149 143 120 115 118
88 82 34 2 16 261 252 185 245 236 198 176 174 174 170 163 159 156 153 151 153 151 150 145 140 139 140 132 138 146 150 150 150 155 153 141 70 22 357 43 59 49 130 99 73 80 62 62 87
192 136 151 195 221 267 312 232 261 245 186 162 157 159 157 158 161 161 162 160 157 153 150 151 151 152 153 144 144 135 134 141 146 156 159 159 168 186 263 72 79 60 56 61 67 56 13 56 89
167 176 168 144 147 105 287 300 321 28 65 140 145 148 158 164 161 160 161 158 157 157 161 162 159 155 158 155 145 134 133 133 134 129 135 143 154 132 74 57 83 50 40 43 74 77 21 34 39
161 159 97 109 146 209 267 233 220 212 202 183 163 154 157 165 160 161 160 162 163 164 162 156 154 155 157 150 152 143 134 123 116 108 110 117 110 100 95 57 55 38 27 40 61 61 20 33 351
157 106 113 125 155 157 210 253 215 196 191 179 176 164 161 166 162 154 154 160 154 147 148 148 149 141 140 143 133 117 112 105 91 94 115 119 97 99 104 101 68 35 19 20 37 348 20 46 348
152 169 142 148 231 176 174 257 234 181 181 168 159 152 154 154 152 148 150 153 149 147 150 149 148 144 142 136 130 129 129 118 106 103 129 127 119 109 113 96 83 61 28 20 29 358 23 51 3